Regional Weather Roundup
Issued by NWS

Home | Current Version | Previous Version | Graphics & Text | Print | Product List | Glossary On
Versions: 1 2 3 4 5 6 7 8 9 10 11 12 13 14 15 16 17 18 19 20 21 22 23 24 25 26 27 28 29 30 31 32 33 34 35 36 37 38 39 40 41 42 43 44 45 46 47 48 49 50
000
ASUS43 KOAX 251010
RWRNE

WEATHER ROUNDUP FOR NEBRASKA
NATIONAL WEATHER SERVICE OMAHA NE
500 AM CDT SAT OCT 25 2014

NOTES: SATELLITE DATA IS BEING USED TO AUGMENT CLOUD COVER ABOVE
       12000 FEET.
       "FAIR" INDICATES FEW OR NO CLOUDS BELOW 12,000 FEET WITH NO
       SIGNIFICANT WEATHER AND/OR OBSTRUCTIONS TO VISIBILITY.

  * THESE STATIONS DO NOT REPORT WEATHER SUCH AS RAIN...SNOW OR FOG.

NEZ001>004-019>022-054>056-251100-
NEBRASKA PANHANDLE

CITY           SKY/WX    TMP DP  RH WIND       PRES   REMARKS
SCOTTSBLUFF    CLEAR     40  32  73 CALM      30.14S
ALLIANCE       CLEAR     31  28  89 NW3       30.15S
CHADRON        CLEAR     33  31  92 SW7       30.17S WCI  27
KIMBALL        CLEAR     42  31  63 W8        30.17S
SIDNEY         CLEAR     41  30  65 W10       30.15S
$$

NEZ057>060-069>072-079>082-251100-
SOUTHWEST NEBRASKA

CITY           SKY/WX    TMP DP  RH WIND       PRES   REMARKS
NORTH PLATTE   CLEAR     37  34  89 CALM      30.08S
IMPERIAL       CLEAR     46  34  62 W5        30.09S
LEXINGTON      CLEAR     40  38  91 W5        30.07S
MCCOOK         CLEAR     42  35  76 W7        30.07S
OGALLALA       CLEAR     38  34  87 SW6       30.10S WCI  33
$$

NEZ005>010-023>029-035>040-094-251100-
NORTH CENTRAL NEBRASKA

CITY           SKY/WX    TMP DP  RH WIND       PRES   REMARKS
VALENTINE      CLEAR     48  34  58 NE8       30.13S
AINSWORTH      CLEAR     43  34  69 NE5       30.12S
BROKEN BOW     CLEAR     43  39  86 N5        30.08R
O`NEILL        CLEAR     51  40  66 N8        30.11S
ORD            CLEAR     38  36  92 NW6       30.09R WCI  33
THEDFORD       CLEAR     44  36  73 CALM      30.10F
$$

NEZ041-046>049-061>064-073>077-083>087-251100-
SOUTH CENTRAL NEBRASKA

CITY           SKY/WX    TMP DP  RH WIND       PRES   REMARKS
GRAND ISLAND   CLEAR     45  41  86 N5        30.06R
AURORA         CLEAR     47  43  87 N6        30.06R
HASTINGS       CLEAR     47  43  86 CALM      30.06R
HEBRON         CLEAR     47  45  92 CALM      30.05R
HOLDREGE       CLEAR     42  39  90 CALM      30.06R
KEARNEY *      CLEAR     45  39  81 W8        30.07S
YORK           CLEAR     45  45 100 N5        30.06S
$$

NEZ011>018-030>034-042>045-251100-
NORTHEAST NEBRASKA

CITY           SKY/WX    TMP DP  RH WIND       PRES   REMARKS
NORFOLK        CLEAR     42  40  92 NW5       30.07S
ALBION         CLEAR     45  40  81 NW9       30.08S
BLAIR          CLEAR     57  46  65 N10       30.04R
COLUMBUS *     CLEAR     45  37  76 CALM      30.08R
FREMONT        CLEAR     46  44  94 NW6       30.06R
TEKAMAH        CLEAR     46  43  89 NW5       30.04S
WAYNE          CLEAR     43  40  89 CALM      30.08R
$$

NEZ050>053-065>068-078-088>093-251100-
SOUTHEAST NEBRASKA

CITY           SKY/WX    TMP DP  RH WIND       PRES   REMARKS
LINCOLN        CLEAR     44  42  93 N6        30.05S
OMAHA EPPLEY   CLEAR     47  45  93 N8        30.04R
BEATRICE       CLEAR     45  44  97 CALM      30.05R
FALLS CITY     FOG       49  48  97 NW6       30.02S VSB 1/4
NEBRASKA CITY  CLEAR     53  46  76 CALM      30.03R
PLATTSMOUTH    CLEAR     51  47  84 W3        30.03R
$$

NEZ044-045-051>053-067-251100-
OMAHA AREA

CITY           SKY/WX    TMP DP  RH WIND       PRES   REMARKS
OMAHA EPPLEY   CLEAR     47  45  93 N8        30.04R
BLAIR          CLEAR     57  46  65 N10       30.04R
FREMONT        CLEAR     46  44  94 NW6       30.06R
MILLARD        CLEAR     48  47  95 CALM      30.03R
OFFUTT AFB     CLEAR     46  46 100 W2        30.02R FOG
PLATTSMOUTH    CLEAR     51  47  84 W3        30.03R
WAHOO          FAIR      49  44  82 NW5       30.05R
$$



USA.gov is the U.S. government's official web portal to all federal, state and local government web resources and services.